H1 CPF 2 NER 2021 12 11 9 345 01 glonass134 H2 1407501 9134 40315 2021 12 11 0 0 0 2021 12 14 23 45 0 900 1 1 0 0 0 1 H9 10 0 59559 0.00000 0 6975506.186 -12233787.145 21267581.188 10 0 59559 900.00000 0 9425894.211 -12887836.064 19884944.999 10 0 59559 1800.00000 0 11640112.626 -13653100.849 18115840.881 10 0 59559 2700.00000 0 13572835.764 -14483778.861 15994414.452 10 0 59559 3600.00000 0 15189392.415 -15327802.608 13561721.350 10 0 59559 4500.00000 0 16466984.467 -16129114.772 10864942.485 10 0 59559 5400.00000 0 17395415.558 -16830135.264 7956473.705 10 0 59559 6300.00000 0 17977298.160 -17374315.793 4892906.903 10 0 59559 7200.00000 0 18227729.545 -17708672.817 1733922.450 10 0 59559 8100.00000 0 18173449.953 -17786190.017 -1458884.805 10 0 59559 9000.00000 0 17851518.621 -17567986.383 -4623221.943 10 0 59559 9900.00000 0 17307564.336 -17025155.745 -7697331.238 10 0 59559 10800.00000 0 16593685.839 -16140197.521 -10621214.317 10 0 59559 11700.00000 0 15766092.667 -14907976.032 -13337821.277 10 0 59559 12600.00000 0 14882588.305 -13336166.239 -15794179.576 10 0 59559 13500.00000 0 14000004.270 -11445165.966 -17942439.080 10 0 59559 14400.00000 0 13171695.497 -9267477.820 -19740811.772 10 0 59559 15300.00000 0 12445204.424 -6846586.872 -21154387.129 10 0 59559 16200.00000 0 11860193.334 -4235381.699 -22155807.305 10 0 59559 17100.00000 0 11446732.441 -1494185.573 -22725789.496 10 0 59559 18000.00000 0 11224015.479 1311518.999 -22853486.271 10 0 59559 18900.00000 0 11199555.821 4113576.844 -22536678.224 10 0 59559 19800.00000 0 11368895.435 6843753.906 -21781796.722 10 0 59559 20700.00000 0 11715837.043 9436330.322 -20603777.910 10 0 59559 21600.00000 0 12213187.742 11830585.703 -19025752.369 10 0 59559 22500.00000 0 12823980.889 13973074.545 -17078577.822 10 0 59559 23400.00000 0 13503123.232 15819598.852 -14800225.135 10 0 59559 24300.00000 0 14199396.726 17336798.183 -12235030.418 10 0 59559 25200.00000 0 14857730.033 18503293.448 -9432828.265 10 0 59559 26100.00000 0 15421643.844 19310339.364 -6447983.313 10 0 59559 27000.00000 0 15835767.262 19761961.016 -3338338.840 10 0 59559 27900.00000 0 16048319.935 19874571.158 -164102.475 10 0 59559 28800.00000 0 16013456.255 19676086.217 3013309.842 10 0 59559 29700.00000 0 15693373.959 19204579.495 6132450.074 10 0 59559 30600.00000 0 15060099.279 18506528.829 9133012.708 10 0 59559 31500.00000 0 14096874.266 17634732.443 11956986.072 10 0 59559 32400.00000 0 12799088.231 16645980.063 14549759.396 10 0 59559 33300.00000 0 11174713.916 15598576.197 16861165.490 10 0 59559 34200.00000 0 9244229.265 14549818.339 18846440.087 10 0 59559 35100.00000 0 7040026.488 13553534.621 20467080.467 10 0 59559 36000.00000 0 4605331.024 12657782.915 21691587.698 10 0 59559 36900.00000 0 1992672.946 11902806.897 22496078.673 10 0 59559 37800.00000 0 -738028.355 11319334.168 22864756.338 10 0 59559 38700.00000 0 -3521689.477 10927287.683 22790228.727 10 0 59559 39600.00000 0 -6290508.486 10734965.028 22273669.823 10 0 59559 40500.00000 0 -8976531.368 10738720.971 21324817.933 10 0 59559 41400.00000 0 -11514234.698 10923168.048 19961809.932 10 0 59559 42300.00000 0 -13843018.248 11261888.502 18210852.721 10 0 59559 43200.00000 0 -15909504.337 11718629.384 16105736.220 10 0 59559 44100.00000 0 -17669547.951 12248932.092 13687195.402 10 0 59559 45000.00000 0 -19089872.913 12802128.855 11002132.093 10 0 59559 45900.00000 0 -20149264.642 13323622.489 8102710.420 10 0 59559 46800.00000 0 -20839268.278 13757352.993 5045342.769 10 0 59559 47700.00000 0 -21164361.676 14048345.780 1889586.030 10 0 59559 48600.00000 0 -21141595.224 14145232.169 -1303029.769 10 0 59559 49500.00000 0 -20799713.317 14002633.287 -4470216.443 10 0 59559 50400.00000 0 -20177794.821 13583303.981 -7550160.770 10 0 59559 51300.00000 0 -19323470.871 12859943.467 -10482749.761 10 0 59559 52200.00000 0 -18290796.710 11816593.642 -13210762.146 10 0 59559 53100.00000 0 -17137869.388 10449564.014 -15681000.777 10 0 59559 54000.00000 0 -15924293.955 8767842.608 -17845342.308 10 0 59559 54900.00000 0 -14708607.124 6792974.630 -19661682.499 10 0 59559 55800.00000 0 -13545768.774 4558413.670 -21094758.047 10 0 59559 56700.00000 0 -12484828.203 2108372.825 -22116828.906 10 0 59559 57600.00000 0 -11566863.917 -503775.609 -22708208.342 10 0 59559 58500.00000 0 -10823283.459 -3217484.180 -22857631.315 10 0 59559 59400.00000 0 -10274553.831 -5967314.540 -22562455.368 10 0 59559 60300.00000 0 -9929414.295 -8685426.232 -21828691.654 10 0 59559 61200.00000 0 -9784602.661 -11304166.116 -20670867.085 10 0 59559 62100.00000 0 -9825104.236 -13758651.050 -19111721.847 10 0 59559 63000.00000 0 -10024910.646 -15989237.267 -17181749.543 10 0 59559 63900.00000 0 -10348254.471 -17943774.974 -14918590.077 10 0 59559 64800.00000 0 -10751265.918 -19579556.261 -12366287.955 10 0 59559 65700.00000 0 -11183980.441 -20864877.364 -9574430.959 10 0 59559 66600.00000 0 -11592611.969 -21780152.501 -6597186.247 10 0 59559 67500.00000 0 -11921995.680 -22318535.289 -3492252.547 10 0 59559 68400.00000 0 -12118097.611 -22486024.064 -319748.457 10 0 59559 69300.00000 0 -12130485.922 -22301048.663 2858942.059 10 0 59559 70200.00000 0 -11914660.525 -21793557.530 5982345.400 10 0 59559 71100.00000 0 -11434143.801 -21003644.361 8990073.518 10 0 59559 72000.00000 0 -10662245.155 -19979772.202 11823976.852 10 0 59559 72900.00000 0 -9583425.657 -18776669.253 14429253.977 10 0 59559 73800.00000 0 -8194205.326 -17452983.800 16755497.850 10 0 59559 74700.00000 0 -6503574.472 -16068795.421 18757659.576 10 0 59559 75600.00000 0 -4532890.517 -14683085.327 20396912.307 10 0 59559 76500.00000 0 -2315262.754 -13351270.274 21641399.475 10 0 59559 77400.00000 0 105551.691 -12122902.004 22466853.479 10 0 59559 78300.00000 0 2676697.475 -11039627.412 22857073.098 10 0 59559 79200.00000 0 5338154.752 -10133494.218 22804250.127 10 0 59559 80100.00000 0 8024979.432 -9425672.997 22309138.144 10 0 59559 81000.00000 0 10669759.533 -8925649.510 21381058.950 10 0 59559 81900.00000 0 13205187.752 -8630922.097 20037744.884 10 0 59559 82800.00000 0 15566644.699 -8527218.128 18305018.206 10 0 59559 83700.00000 0 17694686.130 -8589221.835 16216311.728 10 0 59559 84600.00000 0 19537330.613 -8781784.302 13812038.003 10 0 59559 85500.00000 0 21052051.461 -9061565.832 11138817.688 10 0 59560 0.00000 0 22207388.510 -9379041.977 8248581.029 10 0 59560 900.00000 0 22984111.379 -9680788.774 5197557.643 10 0 59560 1800.00000 0 23375882.451 -9911949.436 2045178.185 10 0 59560 2700.00000 0 23389392.564 -10018777.328 -1147095.333 10 0 59560 3600.00000 0 23043961.229 -9951145.151 -4316982.732 10 0 59560 4500.00000 0 22370618.666 -9664911.847 -7402618.529 10 0 59560 5400.00000 0 21410708.646 -9124044.336 -10343778.202 10 0 59560 6300.00000 0 20214072.107 -8302401.721 -13083071.941 10 0 59560 7200.00000 0 18836889.714 -7185104.167 -15567080.514 10 0 59560 8100.00000 0 17339276.222 -5769426.801 -17747409.528 10 0 59560 9000.00000 0 15782729.973 -4065179.539 -19581640.316 10 0 59560 9900.00000 0 14227546.764 -2094556.211 -21034158.188 10 0 59560 10800.00000 0 12730308.287 108540.890 -22076841.912 10 0 59560 11700.00000 0 11341551.475 2499672.415 -22689601.433 10 0 59560 12600.00000 0 10103716.767 5025479.661 -22860754.299 10 0 59560 13500.00000 0 9049460.691 7625680.257 -22587234.810 10 0 59560 14400.00000 0 8200402.129 10235357.966 -21874633.325 10 0 59560 15300.00000 0 7566352.868 12787450.685 -20737066.565 10 0 59560 16200.00000 0 7145062.271 15215333.028 -19196883.028 10 0 59560 17100.00000 0 6922484.129 17455386.466 -17284210.571 10 0 59560 18000.00000 0 6873551.921 19449450.839 -15036356.209 10 0 59560 18900.00000 0 6963427.489 21147056.660 -12497070.639 10 0 59560 19800.00000 0 7149168.690 22507346.940 -9715692.360 10 0 59560 20700.00000 0 7381744.397 23500610.445 -6746188.350 10 0 59560 21600.00000 0 7608311.121 24109364.625 -3646109.907 10 0 59560 22500.00000 0 7774655.063 24328945.089 -475483.593 10 0 59560 23400.00000 0 7827696.849 24167578.911 2704341.646 10 0 59560 24300.00000 0 7717953.965 23645940.274 5831869.652 10 0 59560 25200.00000 0 7401857.862 22796208.108 8846632.731 10 0 59560 26100.00000 0 6843828.934 21660665.683 11690346.124 10 0 59560 27000.00000 0 6018022.615 20289900.721 14308020.211 10 0 59560 27900.00000 0 4909673.371 18740680.693 16649010.272 10 0 59560 28800.00000 0 3515979.902 17073591.153 18667984.680 10 0 59560 29700.00000 0 1846493.459 15350534.418 20325794.047 10 0 59560 30600.00000 0 -77008.528 13632191.547 21590225.441 10 0 59560 31500.00000 0 -2221160.392 11975552.128 22436627.688 10 0 59560 32400.00000 0 -4542133.769 10431613.655 22848395.946 10 0 59560 33300.00000 0 -6987206.809 9043345.529 22817305.903 10 0 59560 34200.00000 0 -9496714.698 7844002.194 22343690.420 10 0 59560 35100.00000 0 -12006303.211 6855855.837 21436453.985 10 0 59560 36000.00000 0 -14449394.031 6089402.051 20112923.092 10 0 59560 36900.00000 0 -16759761.045 5543072.627 18398533.555 10 0 59560 37800.00000 0 -18874111.498 5203468.548 16326358.805 10 0 59560 38700.00000 0 -20734564.786 5046104.620 13936486.310 10 0 59560 39600.00000 0 -22290924.912 5036635.449 11275252.573 10 0 59560 40500.00000 0 -23502650.632 5132511.789 8394350.245 10 0 59560 41400.00000 0 -24340439.242 5284997.527 5349823.941 10 0 59560 42300.00000 0 -24787355.883 5441461.643 2200974.297 10 0 59560 43200.00000 0 -24839459.275 5547846.990 -990807.874 10 0 59560 44100.00000 0 -24505896.242 5551209.631 -4163253.463 10 0 59560 45000.00000 0 -23808460.217 5402218.896 -7254447.606 10 0 59560 45900.00000 0 -22780632.143 5057509.687 -10204056.943 10 0 59560 46800.00000 0 -21466144.702 4481784.757 -12954525.576 10 0 59560 47700.00000 0 -19917131.457 3649575.535 -15452214.364 10 0 59560 48600.00000 0 -18191940.461 2546584.921 -17648459.702 10 0 59560 49500.00000 0 -16352706.137 1170553.731 -19500529.917 10 0 59560 50400.00000 0 -14462783.377 -468386.730 -20972459.922 10 0 59560 51300.00000 0 -12584153.158 -2347891.260 -22035747.774 10 0 59560 52200.00000 0 -10774909.571 -4434099.078 -22669900.077 10 0 59560 53100.00000 0 -9086934.039 -6682824.063 -22862816.461 10 0 59560 54000.00000 0 -7563853.746 -9041186.464 -22611007.014 10 0 59560 54900.00000 0 -6239368.585 -11449617.206 -21919639.922 10 0 59560 55800.00000 0 -5136014.870 -13844150.454 -20802420.004 10 0 59560 56700.00000 0 -4264415.119 -16158908.546 -19281302.055 10 0 59560 57600.00000 0 -3623042.599 -18328675.821 -17386045.967 10 0 59560 58500.00000 0 -3198507.609 -20291454.503 -15153623.504 10 0 59560 59400.00000 0 -2966350.712 -21990897.122 -12627489.113 10 0 59560 60300.00000 0 -2892307.095 -23378515.438 -9856729.562 10 0 59560 61200.00000 0 -2933986.950 -24415575.333 -6895109.251 10 0 59560 62100.00000 0 -3042899.672 -25074600.476 -3800029.729 10 0 59560 63000.00000 0 -3166735.853 -25340423.849 -631423.301 10 0 59560 63900.00000 0 -3251810.644 -25210744.937 2549398.226 10 0 59560 64800.00000 0 -3245565.768 -24696170.801 5680918.173 10 0 59560 65700.00000 0 -3099025.284 -23819740.397 8702591.163 10 0 59560 66600.00000 0 -2769102.385 -22615952.619 11555999.139 10 0 59560 67500.00000 0 -2220660.802 -21129338.735 14185966.113 10 0 59560 68400.00000 0 -1428244.522 -19412638.362 16541611.413 10 0 59560 69300.00000 0 -377403.200 -17524654.161 18577322.261 10 0 59560 70200.00000 0 934442.891 -15527873.403 20253628.113 10 0 59560 71100.00000 0 2497635.787 -13485953.963 21537960.813 10 0 59560 72000.00000 0 4290427.764 -11461177.849 22405286.486 10 0 59560 72900.00000 0 6279640.432 -9511976.792 22838597.227 10 0 59560 73800.00000 0 8421810.340 -7690631.567 22829252.869 10 0 59560 74700.00000 0 10664776.185 -6041240.072 22377165.479 10 0 59560 75600.00000 0 12949644.546 -4598038.323 21490821.861 10 0 59560 76500.00000 0 15213054.930 -3384144.461 20187141.993 10 0 59560 77400.00000 0 17389651.850 -2410778.717 18491174.288 10 0 59560 78300.00000 0 19414662.452 -1676992.762 16435631.554 10 0 59560 79200.00000 0 21226472.794 -1169920.729 14060274.643 10 0 59560 80100.00000 0 22769094.980 -865542.341 11411154.069 10 0 59560 81000.00000 0 23994421.106 -729926.732 8539723.010 10 0 59560 81900.00000 0 24864168.098 -720904.801 5501838.115 10 0 59560 82800.00000 0 25351430.002 -790099.274 2356667.531 10 0 59560 83700.00000 0 25441770.557 -885225.702 -834472.078 10 0 59560 84600.00000 0 25133808.366 -952565.490 -4009325.748 10 0 59560 85500.00000 0 24439268.632 -939504.156 -7105932.341 10 0 59561 0.00000 0 23382498.616 -797024.854 -10063852.410 10 0 59561 900.00000 0 21999466.500 -482048.780 -12825367.329 10 0 59561 1800.00000 0 20336287.853 40478.905 -15336620.318 10 0 59561 2700.00000 0 18447340.973 795848.482 -17548680.782 10 0 59561 3600.00000 0 16393053.165 1798265.598 -19418505.931 10 0 59561 4500.00000 0 14237452.162 3050008.750 -20909781.804 10 0 59561 5400.00000 0 12045587.041 4541100.487 -21993626.944 10 0 59561 6300.00000 0 9880927.910 6249506.320 -22649145.453 10 0 59561 7200.00000 0 7802853.910 8141852.569 -22863819.528 10 0 59561 8100.00000 0 5864334.552 10174632.462 -22633735.164 10 0 59561 9000.00000 0 4109900.426 12295849.178 -21963638.106 10 0 59561 9900.00000 0 2573986.607 14447026.315 -20866820.599 10 0 59561 10800.00000 0 1279715.702 16565501.256 -19364842.673 10 0 59561 11700.00000 0 238168.720 18586905.392 -17487094.811 10 0 59561 12600.00000 0 -551828.677 20447727.773 -15270211.705 10 0 59561 13500.00000 0 -1103398.675 22087855.754 -12757349.411 10 0 59561 14400.00000 0 -1440798.275 23452987.546 -9997340.523 10 0 59561 15300.00000 0 -1598137.350 24496817.156 -7043744.170 10 0 59561 16200.00000 0 -1617683.632 25182902.017 -3953809.266 10 0 59561 17100.00000 0 -1547827.303 25486136.873 -787370.857 10 0 59561 18000.00000 0 -1440791.584 25393773.857 2394299.458 10 0 59561 18900.00000 0 -1350185.948 24905947.513 5529667.515 10 0 59561 19800.00000 0 -1328504.724 24035683.840 8558113.205 10 0 59561 20700.00000 0 -1424675.831 22808393.575 11421087.958 10 0 59561 21600.00000 0 -1681762.165 21260870.988 14063232.000 10 0 59561 22500.00000 0 -2134911.688 19439839.478 16433431.048 10 0 59561 23400.00000 0 -2809642.056 17400103.747 18485793.252 10 0 59561 24300.00000 0 -3720531.903 15202384.140 20180528.713 10 0 59561 25200.00000 0 -4870374.366 12910921.634 21484715.559 10 0 59561 26100.00000 0 -6249829.597 10590951.353 22372938.390 10 0 59561 27000.00000 0 -7837592.707 8306147.847 22827787.066 10 0 59561 27900.00000 0 -9601072.618 6116146.712 22840205.984 10 0 59561 28800.00000 0 -11497556.175 4074244.381 22409686.395 10 0 59561 29700.00000 0 -13475811.884 2225370.911 21544296.903 10 0 59561 30600.00000 0 -15478069.170 604419.785 20260549.932 10 0 59561 31500.00000 0 -17442292.887 -764995.439 18583104.929 10 0 59561 32400.00000 0 -19304659.988 -1871305.262 16544311.992 10 0 59561 33300.00000 0 -21002135.921 -2715236.397 14183602.801 10 0 59561 34200.00000 0 -22475043.160 -3309540.486 11546738.939 10 0 59561 35100.00000 0 -23669513.731 -3678210.054 8684930.858 10 0 59561 36000.00000 0 -24539721.566 -3855214.274 5653843.790 10 0 59561 36900.00000 0 -25049799.098 -3882807.890 2512509.856 10 0 59561 37800.00000 0 -25175355.416 -3809485.368 -677831.957 10 0 59561 38700.00000 0 -24904529.997 -3687668.082 -3854944.284 10 0 59561 39600.00000 0 -24238535.766 -3571224.229 -6956823.033 10 0 59561 40500.00000 0 -23191667.285 -3512928.831 -9922926.308 10 0 59561 41400.00000 0 -21790772.959 -3561973.935 -12695374.570 10 0 59561 42300.00000 0 -20074213.456 -3761636.997 -15220096.539 10 0 59561 43200.00000 0 -18090350.777 -4147208.520 -17447896.845 10 0 59561 44100.00000 0 -15895632.527 -4744268.558 -19335423.339 10 0 59561 45000.00000 0 -13552353.296 -5567386.303 -20846014.415 10 0 59561 45900.00000 0 -11126188.426 -6619298.455 -21950409.733 10 0 59561 46800.00000 0 -8683604.685 -7890601.260 -22627310.907 10 0 59561 47700.00000 0 -6289257.029 -9359968.863 -22863782.104 10 0 59561 48600.00000 0 -4003480.417 -10994888.129 -22655484.051 10 0 59561 49500.00000 0 -1879980.873 -12752878.280 -22006738.391 10 0 59561 50400.00000 0 36178.984 -14583143.210 -20930422.710 10 0 59561 51300.00000 0 1710217.873 -16428586.507 -19447699.882 10 0 59561 52200.00000 0 3118831.385 -18228104.299 -17587588.346 10 0 59561 53100.00000 0 4250898.018 -19919059.729 -15386382.952 10 0 59561 54000.00000 0 5107669.338 -21439835.797 -12886938.503 10 0 59561 54900.00000 0 5702439.374 -22732360.354 -10137830.562 10 0 59561 55800.00000 0 6059709.877 -23744498.559 -7192410.175 10 0 59561 56700.00000 0 6213888.883 -24432213.946 -4107770.903 10 0 59561 57600.00000 0 6207579.088 -24761409.014 -943647.937 10 0 59561 58500.00000 0 6089529.207 -24709369.718 2238729.764 10 0 59561 59400.00000 0 5912335.085 -24265754.647 5377812.814 10 0 59561 60300.00000 0 5729987.428 -23433088.507 8412908.444 10 0 59561 61200.00000 0 5595368.898 -22226739.820 11285339.464 10 0 59561 62100.00000 0 5557805.308 -20674383.900 13939563.992 10 0 59561 63000.00000 0 5660773.160 -18814973.047 16324235.598 10 0 59561 63900.00000 0 5939859.280 -16697255.990 18393184.581 10 0 59561 64800.00000 0 6421057.952 -14377906.814 20106302.644 10 0 59561 65700.00000 0 7119477.181 -11919339.437 21430314.873 10 0 59561 66600.00000 0 8038509.073 -9387296.541 22339424.724 10 0 59561 67500.00000 0 9169500.449 -6848311.084 22815819.901 10 0 59561 68400.00000 0 10491939.439 -4367143.837 22850029.162 10 0 59561 69300.00000 0 11974152.658 -2004301.813 22441122.463 10 0 59561 70200.00000 0 13574486.495 186260.582 21596749.477 10 0 59561 71100.00000 0 15242925.908 2159162.850 20333014.122 10 0 59561 72000.00000 0 16923085.521 3879258.150 18674185.703 10 0 59561 72900.00000 0 18554491.811 5322862.092 16652250.244 10 0 59561 73800.00000 0 20075062.295 6478498.647 14306308.670 10 0 59561 74700.00000 0 21423678.366 7347131.102 11681831.838 10 0 59561 75600.00000 0 22542743.654 7941867.600 8829785.460 10 0 59561 76500.00000 0 23380619.438 8287153.061 5805641.110 10 0 59561 77400.00000 0 23893832.971 8417481.301 2668292.438 10 0 59561 78300.00000 0 24048963.697 8375682.024 -521101.879 10 0 59561 79200.00000 0 23824125.579 8210856.041 -3700324.798 10 0 59561 80100.00000 0 23209980.870 7976047.563 -6807332.031 10 0 59561 81000.00000 0 22210240.761 7725754.165 -9781481.665 10 0 59561 81900.00000 0 20841630.455 7513382.231 -12564736.311 10 0 59561 82800.00000 0 19133319.534 7388758.125 -15102812.219 10 0 59561 83700.00000 0 17125841.553 7395802.815 -17346251.283 10 0 59561 84600.00000 0 14869548.866 7570470.394 -19251393.745 10 0 59561 85500.00000 0 12422668.619 7939039.173 -20781231.824 10 0 59562 0.00000 0 9849042.830 8516828.401 -21906127.411 10 0 59562 900.00000 0 7215646.950 9307395.416 -22604380.761 10 0 59562 1800.00000 0 4589995.105 10302245.968 -22862638.527 10 0 59562 2700.00000 0 2037536.168 11481070.223 -22676136.488 10 0 59562 3600.00000 0 -380847.428 12812492.784 -22048772.145 10 0 59562 4500.00000 0 -2611136.063 14255304.320 -20993007.996 10 0 59562 5400.00000 0 -4608170.092 15760121.986 -19529608.907 10 0 59562 6300.00000 0 -6337266.784 17271408.096 -17687220.021 10 0 59562 7200.00000 0 -7775392.183 18729761.774 -15501794.692 10 0 59562 8100.00000 0 -8911842.007 20074387.374 -13015884.488 10 0 59562 9000.00000 0 -9748406.235 21245636.396 -10277805.652 10 0 59562 9900.00000 0 -10299013.406 22187516.949 -7340698.638 10 0 59562 10800.00000 0 -10588872.250 22850066.500 -4261498.985 10 0 59562 11700.00000 0 -10653148.840 23191489.589 -1099839.259 10 0 59562 12600.00000 0 -10535236.405 23179972.095 2083097.037 10 0 59562 13500.00000 0 -10284691.526 22795097.182 5225748.107 10 0 59562 14400.00000 0 -9954923.872 22028804.544 8267351.290 10 0 59562 15300.00000 0 -9600736.489 20885853.357 11149103.452 10 0 59562 16200.00000 0 -9275819.537 19383769.706 13815283.157 10 0 59562 17100.00000 0 -9030302.099 17552280.259 16214314.236 10 0 59562 18000.00000 0 -8908464.101 15432254.884 18299751.360 10 0 59562 18900.00000 0 -8946703.812 13074200.819 20031169.853 10 0 59562 19800.00000 0 -9171845.917 10536369.154 21374943.538 10 0 59562 20700.00000 0 -9599861.288 7882550.239 22304896.230 10 0 59562 21600.00000 0 -10235052.870 5179647.287 22802814.658 10 0 59562 22500.00000 0 -11069743.169 2495126.618 22858812.748 10 0 59562 23400.00000 0 -12084478.273 -105551.527 22471539.552 10 0 59562 24300.00000 0 -13248742.192 -2561416.624 21648225.726 10 0 59562 25200.00000 0 -14522154.120 -4818283.887 20404566.088 10 0 59562 26100.00000 0 -15856100.910 -6830767.698 18764438.688 10 0 59562 27000.00000 0 -17195738.551 -8563928.657 16759463.824 10 0 59562 27900.00000 0 -18482280.393 -9994485.121 14428409.533 10 0 59562 28800.00000 0 -19655476.973 -11111537.768 11816453.359 10 0 59562 29700.00000 0 -20656183.399 -11916776.034 8974313.325 10 0 59562 30600.00000 0 -21428905.619 -12424156.969 5957264.113 10 0 59562 31500.00000 0 -21924216.877 -12659069.522 2824057.473 10 0 59562 32400.00000 0 -22100940.522 -12657019.484 -364231.754 10 0 59562 33300.00000 0 -21928004.766 -12461891.194 -3545410.418 10 0 59562 34200.00000 0 -21385888.694 -12123860.611 -6657397.556 10 0 59562 35100.00000 0 -20467596.303 -11697049.818 -9639454.677 10 0 59562 36000.00000 0 -19179115.663 -11237024.321 -12433389.820 10 0 59562 36900.00000 0 -17539342.626 -10798241.499 -14984709.807 10 0 59562 37800.00000 0 -15579471.736 -10431560.488 -17243696.503 10 0 59562 38700.00000 0 -13341879.971 -10181920.978 -19166384.832 10 0 59562 39600.00000 0 -10878550.820 -10086290.658 -20715422.605 10 0 59562 40500.00000 0 -8249105.675 -10171969.100 -21860795.269 10 0 59562 41400.00000 0 -5518525.965 -10455320.041 -22580401.820 10 0 59562 42300.00000 0 -2754662.250 -10940985.272 -22860471.471 10 0 59562 43200.00000 0 -25634.806 -11621612.479 -22695814.270 10 0 59562 44100.00000 0 2602765.789 -12478107.313 -22089902.205 10 0 59562 45000.00000 0 5069570.198 -13480397.645 -21054780.860 10 0 59562 45900.00000 0 7320911.426 -14588676.479 -19610814.859 10 0 59562 46800.00000 0 9312002.256 -15755069.981 -17786273.508 10 0 59562 47700.00000 0 11008728.902 -16925659.538 -15616765.889 10 0 59562 48600.00000 0 12388797.198 -18042772.281 -13144537.364 10 0 59562 49500.00000 0 13442386.454 -19047443.698 -10417641.764 10 0 59562 50400.00000 0 14172286.557 -19881949.105 -7489005.771 10 0 59562 51300.00000 0 14593515.418 -20492298.277 -4415403.694 10 0 59562 52200.00000 0 14732435.203 -20830589.371 -1256362.298 10 0 59562 53100.00000 0 14625406.303 -20857124.311 1926983.433 10 0 59562 54000.00000 0 14317036.874 -20542197.932 5073062.190 10 0 59562 54900.00000 0 13858102.187 -19867486.692 8121044.062 10 0 59562 55800.00000 0 13303221.279 -18826979.358 11012002.316 10 0 59562 56700.00000 0 12708388.186 -17427410.871 13690037.974 10 0 59562 57600.00000 0 12128460.707 -15688180.882 16103346.756 10 0 59562 58500.00000 0 11614711.245 -13640759.494 18205208.961 10 0 59562 59400.00000 0 11212541.618 -11327603.554 19954884.404 10 0 59562 60300.00000 0 10959456.997 -8800626.655 21318396.132 10 0 59562 61200.00000 0 10883383.561 -6119284.279 22269188.449 10 0 59562 62100.00000 0 11001400.555 -3348351.127 22788646.896 10 0 59562 63000.00000 0 11318940.564 -555480.352 22866470.032 10 0 59562 63900.00000 0 11829492.803 2191356.225 22500885.184 10 0 59562 64800.00000 0 12514823.608 4826442.745 21698702.919 10 0 59562 65700.00000 0 13345707.010 7288803.384 20475207.653 10 0 59562 66600.00000 0 14283136.961 9524493.455 18853884.680 10 0 59562 67500.00000 0 15279972.504 11488602.574 16865986.891 10 0 59562 68400.00000 0 16282948.548 13146886.138 14549947.586 10 0 59562 69300.00000 0 17234968.903 14476956.273 11950648.979 10 0 59562 70200.00000 0 18077585.547 15468981.512 9118559.216 10 0 59562 71100.00000 0 18753559.344 16125864.924 6108753.759 10 0 59562 72000.00000 0 19209393.069 16462892.394 2979839.968 10 0 59562 72900.00000 0 19397728.085 16506865.513 -207193.722 10 0 59562 73800.00000 0 19279501.141 16294755.809 -3390180.681 10 0 59562 74700.00000 0 18825767.730 15871937.865 -6507005.861 10 0 59562 75600.00000 0 18019112.489 15290077.414 -9496836.677 10 0 59562 76500.00000 0 16854584.891 14604765.540 -12301328.902 10 0 59562 77400.00000 0 15340119.080 13873001.238 -14865781.997 10 0 59562 78300.00000 0 13496419.000 13150631.073 -17140219.622 10 0 59562 79200.00000 0 11356313.179 12489856.306 -19080372.934 10 0 59562 80100.00000 0 8963606.400 11936914.554 -20648546.637 10 0 59562 81000.00000 0 6371476.989 11530035.064 -21814350.710 10 0 59562 81900.00000 0 3640487.601 11297754.394 -22555283.908 10 0 59562 82800.00000 0 836293.628 11257663.331 -22857158.461 10 0 59562 83700.00000 0 -1972854.442 11415637.044 -22714358.948 10 0 59562 84600.00000 0 -4718710.277 11765579.544 -22129931.791 10 0 59562 85500.00000 0 -7335624.322 12289691.584 -21115505.190 99